PR-CUNAR 2

Last updated on Wed Aug 31 2022 00:02:06 GMT+0000 (Coordinated Universal Time)

1 49277U 98067SW 22242.28288402 .14112517 12549-4 46195-3 0 9990 2 49277 51.6027 292.5146 0003041 290.7673 69.3029 16.44775269 50457

Satellite not in orbit